NOZ26 EGKK-ENML

Flight info

Callsign NOZ26
Flight time 1h 57m
Altitude 35000
Route FRANE M604 GIVPO DCT LARGA DCT PENUN DCT TUMIM
Aircraft B738/M-SDE2E3FGHIRWXY/LB1

Departure

Time 2026-05-07 14:59
Airport London Gatwick Airport (EGKK)

Arrival

Time 2026-05-07 16:56
Airport Molde Airport, Årø (ENML)
Time Latitude Longitude Altitude Speed Heading
2026-05-07 14:14 51.16038 -0.16958 214 ft 0 kts 333°
2026-05-07 14:46 51.16024 -0.16946 214 ft 4 kts 333°
2026-05-07 14:47 51.16002 -0.16928 210 ft 1 kts 333°
2026-05-07 14:47 51.15983 -0.16908 216 ft 4 kts 302°
2026-05-07 14:47 51.15977 -0.16875 208 ft 3 kts 270°
2026-05-07 14:47 51.15977 -0.16844 211 ft 0 kts 270°
2026-05-07 14:49 51.15977 -0.16849 211 ft 2 kts 270°
2026-05-07 14:49 51.15973 -0.16895 209 ft 7 kts 258°
2026-05-07 14:50 51.15945 -0.16990 209 ft 12 kts 233°
2026-05-07 14:50 51.15867 -0.17071 207 ft 14 kts 194°
2026-05-07 14:50 51.15810 -0.17144 209 ft 11 kts 257°
2026-05-07 14:50 51.15795 -0.17258 205 ft 10 kts 258°
2026-05-07 14:51 51.15780 -0.17369 203 ft 10 kts 258°
2026-05-07 14:51 51.15766 -0.17472 208 ft 10 kts 258°
2026-05-07 14:51 51.15751 -0.17578 207 ft 10 kts 256°
2026-05-07 14:51 51.15737 -0.17686 203 ft 10 kts 258°
2026-05-07 14:52 51.15721 -0.17801 203 ft 11 kts 258°
2026-05-07 14:52 51.15700 -0.17956 208 ft 17 kts 257°
2026-05-07 14:52 51.15673 -0.18141 211 ft 17 kts 257°
2026-05-07 14:52 51.15648 -0.18316 209 ft 14 kts 249°
2026-05-07 14:53 51.15562 -0.18338 205 ft 13 kts 167°
2026-05-07 14:53 51.15473 -0.18306 203 ft 13 kts 167°
2026-05-07 14:53 51.15386 -0.18274 211 ft 13 kts 167°
2026-05-07 14:53 51.15302 -0.18244 203 ft 12 kts 168°
2026-05-07 14:54 51.15219 -0.18217 203 ft 12 kts 168°
2026-05-07 14:54 51.15140 -0.18194 202 ft 12 kts 183°
2026-05-07 14:54 51.15094 -0.18318 203 ft 17 kts 258°
2026-05-07 14:54 51.15061 -0.18559 201 ft 30 kts 257°
2026-05-07 14:55 51.15006 -0.18960 203 ft 42 kts 258°
2026-05-07 14:55 51.14944 -0.19401 205 ft 44 kts 258°
2026-05-07 14:55 51.14879 -0.19874 204 ft 43 kts 258°
2026-05-07 14:55 51.14816 -0.20325 201 ft 41 kts 257°
2026-05-07 14:56 51.14760 -0.20725 202 ft 32 kts 258°
2026-05-07 14:56 51.14733 -0.20927 205 ft 10 kts 254°
2026-05-07 14:56 51.14702 -0.20978 213 ft 10 kts 196°
2026-05-07 14:56 51.14657 -0.20967 207 ft 2 kts 166°
2026-05-07 14:57 51.14656 -0.20967 206 ft 0 kts 166°
2026-05-07 14:58 51.14635 -0.20958 202 ft 8 kts 163°
2026-05-07 14:58 51.14582 -0.20895 208 ft 11 kts 125°
2026-05-07 14:58 51.14590 -0.20669 211 ft 49 kts 78°
2026-05-07 14:58 51.14732 -0.19625 213 ft 140 kts 77°
2026-05-07 14:59 51.14957 -0.17811 658 ft 186 kts 81°
2026-05-07 14:59 51.15228 -0.15693 1785 ft 198 kts 81°
2026-05-07 14:59 51.15514 -0.13571 2933 ft 195 kts 78°
2026-05-07 14:59 51.15827 -0.11480 3881 ft 203 kts 77°
2026-05-07 15:00 51.16161 -0.09142 4176 ft 231 kts 77°
2026-05-07 15:00 51.16522 -0.06575 4746 ft 242 kts 77°
2026-05-07 15:00 51.16895 -0.03838 4986 ft 263 kts 81°
2026-05-07 15:00 51.16949 -0.00902 4990 ft 268 kts 93°
2026-05-07 15:01 51.16845 0.02100 4920 ft 288 kts 93°
2026-05-07 15:01 51.16750 0.05539 5319 ft 328 kts 92°
2026-05-07 15:01 51.16672 0.09127 7096 ft 320 kts 92°
2026-05-07 15:01 51.16603 0.12632 8868 ft 312 kts 93°
2026-05-07 15:02 51.16542 0.16005 10243 ft 317 kts 92°
2026-05-07 15:02 51.16534 0.19582 11256 ft 327 kts 91°
2026-05-07 15:02 51.16555 0.23242 12369 ft 333 kts 91°
2026-05-07 15:02 51.16573 0.26957 13520 ft 337 kts 91°
2026-05-07 15:03 51.16583 0.30727 14476 ft 344 kts 91°
2026-05-07 15:03 51.16589 0.34584 15357 ft 352 kts 91°
2026-05-07 15:03 51.16592 0.38517 16244 ft 358 kts 91°
2026-05-07 15:03 51.16593 0.42523 17111 ft 365 kts 91°
2026-05-07 15:04 51.16615 0.46595 17955 ft 372 kts 87°
2026-05-07 15:04 51.17261 0.50608 18654 ft 379 kts 63°
2026-05-07 15:04 51.18835 0.53963 19439 ft 381 kts 41°
2026-05-07 15:04 51.21054 0.56251 20199 ft 382 kts 20°
2026-05-07 15:05 51.23616 0.57386 20941 ft 384 kts 10°
2026-05-07 15:05 51.26247 0.58274 21635 ft 389 kts 10°
2026-05-07 15:05 51.28908 0.59194 22320 ft 393 kts 11°
2026-05-07 15:05 51.31587 0.60164 23009 ft 397 kts 11°
2026-05-07 15:06 51.34286 0.61183 23788 ft 401 kts 12°
2026-05-07 15:06 51.37018 0.62227 24303 ft 405 kts 12°
2026-05-07 15:06 51.39733 0.63263 24805 ft 408 kts 11°
2026-05-07 15:06 51.42540 0.64322 25325 ft 411 kts 11°
2026-05-07 15:07 51.45296 0.65357 25823 ft 414 kts 11°
2026-05-07 15:07 51.48109 0.66414 26318 ft 417 kts 11°
2026-05-07 15:07 51.50939 0.67480 26855 ft 418 kts 11°
2026-05-07 15:07 51.53764 0.68547 27519 ft 416 kts 11°
2026-05-07 15:08 51.56577 0.69611 28206 ft 414 kts 11°
2026-05-07 15:08 51.59373 0.70670 28871 ft 412 kts 12°
2026-05-07 15:08 51.62162 0.71727 29487 ft 412 kts 12°
2026-05-07 15:08 51.64948 0.72784 30092 ft 411 kts 12°
2026-05-07 15:09 51.67723 0.73838 30632 ft 410 kts 12°
2026-05-07 15:09 51.70495 0.74892 31114 ft 409 kts 12°
2026-05-07 15:09 51.73293 0.75957 31282 ft 418 kts 12°
2026-05-07 15:09 51.76149 0.77052 31458 ft 425 kts 12°
2026-05-07 15:10 51.79025 0.78216 31819 ft 428 kts 16°
2026-05-07 15:10 51.81788 0.80035 32221 ft 430 kts 27°
2026-05-07 15:10 51.84331 0.82564 32667 ft 429 kts 36°
2026-05-07 15:10 51.86693 0.85548 32948 ft 433 kts 40°
2026-05-07 15:11 51.88958 0.88793 33229 ft 436 kts 43°
2026-05-07 15:11 51.91182 0.92149 33552 ft 438 kts 43°
2026-05-07 15:11 51.93413 0.95531 33878 ft 440 kts 43°
2026-05-07 15:11 51.95665 0.98906 34147 ft 442 kts 43°
2026-05-07 15:12 51.97942 1.02277 34376 ft 445 kts 42°
2026-05-07 15:12 52.00246 1.05662 34583 ft 448 kts 42°
2026-05-07 15:12 52.02560 1.09058 34820 ft 450 kts 42°
2026-05-07 15:12 52.04881 1.12467 35033 ft 448 kts 42°
2026-05-07 15:13 52.09782 1.18587 35084 ft 452 kts 36°
2026-05-07 15:13 52.14896 1.24813 35083 ft 464 kts 40°
2026-05-07 15:14 52.19846 1.31631 35080 ft 467 kts 41°
2026-05-07 15:14 52.24801 1.38486 35084 ft 467 kts 40°
2026-05-07 15:15 52.29785 1.45285 35096 ft 463 kts 41°
2026-05-07 15:15 52.34654 1.52112 35457 ft 460 kts 45°
2026-05-07 15:16 52.36913 1.55817 35700 ft 460 kts 46°
2026-05-07 15:16 52.39129 1.59607 35967 ft 461 kts 47°
2026-05-07 15:16 52.41335 1.63420 36204 ft 461 kts 47°
2026-05-07 15:16 52.43547 1.67227 36473 ft 461 kts 47°
2026-05-07 15:17 52.45771 1.71031 36658 ft 463 kts 46°
2026-05-07 15:17 52.48008 1.74836 36888 ft 464 kts 46°
2026-05-07 15:17 52.50247 1.78638 37099 ft 461 kts 46°
2026-05-07 15:17 52.52482 1.82435 37087 ft 463 kts 47°
2026-05-07 15:18 52.56953 1.90053 37103 ft 464 kts 46°
2026-05-07 15:18 52.61438 1.97706 37103 ft 465 kts 46°
2026-05-07 15:19 52.65896 2.05324 37104 ft 465 kts 46°
2026-05-07 15:19 52.70378 2.13011 37099 ft 465 kts 47°
2026-05-07 15:20 52.74856 2.20716 37100 ft 464 kts 47°
2026-05-07 15:20 52.79315 2.28415 37101 ft 463 kts 47°
2026-05-07 15:21 52.83755 2.36106 37102 ft 462 kts 47°
2026-05-07 15:21 52.88178 2.43790 37105 ft 460 kts 47°
2026-05-07 15:22 52.92587 2.51475 37106 ft 459 kts 47°
2026-05-07 15:22 52.96990 2.59125 37102 ft 458 kts 44°
2026-05-07 15:23 53.02176 2.65208 37109 ft 458 kts 27°
2026-05-07 15:23 53.07916 2.69829 37102 ft 458 kts 26°
2026-05-07 15:24 53.13644 2.74448 37115 ft 457 kts 27°
2026-05-07 15:24 53.19344 2.79166 37112 ft 458 kts 27°
2026-05-07 15:25 53.25038 2.83920 37119 ft 458 kts 27°
2026-05-07 15:25 53.30747 2.88651 37116 ft 458 kts 26°
2026-05-07 15:26 53.36526 2.93177 37115 ft 459 kts 25°
2026-05-07 15:26 53.42322 2.97667 37118 ft 459 kts 25°
2026-05-07 15:27 53.48116 3.02197 37117 ft 460 kts 26°
2026-05-07 15:27 53.53908 3.06762 37119 ft 460 kts 26°
2026-05-07 15:28 53.59662 3.11319 37123 ft 460 kts 26°
2026-05-07 15:28 53.65455 3.15921 37127 ft 460 kts 26°
2026-05-07 15:29 53.71243 3.20531 37126 ft 460 kts 26°
2026-05-07 15:29 53.77027 3.25152 37122 ft 460 kts 26°
2026-05-07 15:30 53.82805 3.29782 37123 ft 459 kts 26°
2026-05-07 15:30 53.88572 3.34418 37123 ft 459 kts 26°
2026-05-07 15:31 53.94337 3.39066 37118 ft 458 kts 26°
2026-05-07 15:31 54.00091 3.43720 37118 ft 458 kts 26°
2026-05-07 15:32 54.05848 3.48391 37119 ft 458 kts 26°
2026-05-07 15:32 54.11594 3.53067 37120 ft 457 kts 26°
2026-05-07 15:33 54.17338 3.57756 37118 ft 457 kts 26°
2026-05-07 15:33 54.23076 3.62454 37118 ft 457 kts 26°
2026-05-07 15:34 54.28813 3.67167 37119 ft 457 kts 26°
2026-05-07 15:34 54.34512 3.71863 37123 ft 458 kts 26°
2026-05-07 15:35 54.40247 3.76603 37128 ft 458 kts 26°
2026-05-07 15:35 54.45983 3.81358 37124 ft 458 kts 26°
2026-05-07 15:36 54.51715 3.86126 37121 ft 458 kts 26°
2026-05-07 15:36 54.57452 3.90912 37126 ft 458 kts 26°
2026-05-07 15:37 54.63180 3.95707 37121 ft 458 kts 26°
2026-05-07 15:37 54.68913 4.00520 37125 ft 458 kts 26°
2026-05-07 15:38 54.74645 4.05348 37126 ft 458 kts 26°
2026-05-07 15:38 54.80376 4.10191 37127 ft 458 kts 26°
2026-05-07 15:39 54.86149 4.14865 37115 ft 458 kts 19°
2026-05-07 15:39 54.92357 4.17266 37129 ft 457 kts
2026-05-07 15:40 54.98649 4.18952 37126 ft 458 kts
2026-05-07 15:40 55.04943 4.20670 37128 ft 458 kts
2026-05-07 15:41 55.11235 4.22461 37125 ft 458 kts
2026-05-07 15:41 55.17527 4.24289 37125 ft 458 kts
2026-05-07 15:42 55.23818 4.26128 37129 ft 459 kts
2026-05-07 15:42 55.30077 4.27963 37132 ft 459 kts
2026-05-07 15:43 55.36382 4.29815 37128 ft 459 kts
2026-05-07 15:43 55.42686 4.31672 37128 ft 459 kts
2026-05-07 15:44 55.48990 4.33535 37130 ft 460 kts
2026-05-07 15:44 55.55307 4.35408 37128 ft 460 kts
2026-05-07 15:45 55.60556 4.36969 37132 ft 460 kts
2026-05-07 15:45 55.67943 4.39173 37131 ft 461 kts
2026-05-07 15:46 55.76353 4.41693 37127 ft 461 kts
2026-05-07 15:47 55.82675 4.43594 37127 ft 461 kts
2026-05-07 15:47 55.88994 4.45501 37128 ft 461 kts
2026-05-07 15:48 55.95315 4.47414 37130 ft 461 kts
2026-05-07 15:48 56.01633 4.49333 37127 ft 461 kts
2026-05-07 15:49 56.07954 4.51260 37128 ft 461 kts
2026-05-07 15:49 56.14275 4.53193 37128 ft 460 kts
2026-05-07 15:50 56.20592 4.55130 37125 ft 460 kts
2026-05-07 15:50 56.26904 4.57074 37130 ft 461 kts
2026-05-07 15:51 56.33221 4.59025 37125 ft 461 kts
2026-05-07 15:51 56.39539 4.60982 37128 ft 460 kts
2026-05-07 15:52 56.45851 4.62945 37123 ft 460 kts
2026-05-07 15:52 56.52157 4.64913 37132 ft 460 kts
2026-05-07 15:53 56.58464 4.66887 37124 ft 460 kts
2026-05-07 15:53 56.64770 4.68868 37126 ft 460 kts
2026-05-07 15:54 56.71036 4.70843 37124 ft 460 kts
2026-05-07 15:54 56.77341 4.72837 37135 ft 460 kts
2026-05-07 15:55 56.83655 4.74841 37126 ft 460 kts
2026-05-07 15:55 56.89965 4.76850 37122 ft 460 kts
2026-05-07 15:56 56.96219 4.78848 37126 ft 462 kts
2026-05-07 15:56 57.02498 4.80861 37148 ft 468 kts
2026-05-07 15:57 57.08927 4.82930 37124 ft 470 kts
2026-05-07 15:57 57.15375 4.84708 37121 ft 470 kts
2026-05-07 15:58 57.20644 4.85763 37122 ft 469 kts
2026-05-07 15:58 57.27092 4.86991 37121 ft 469 kts
2026-05-07 15:59 57.31506 4.87863 37130 ft 468 kts
2026-05-07 15:59 57.37789 4.89152 37120 ft 468 kts
2026-05-07 16:00 57.42790 4.90199 37122 ft 467 kts
2026-05-07 16:00 57.49253 4.91560 37126 ft 467 kts
2026-05-07 16:01 57.55663 4.92914 37134 ft 467 kts
2026-05-07 16:01 57.62160 4.94289 37123 ft 467 kts
2026-05-07 16:02 57.68565 4.95649 37118 ft 466 kts
2026-05-07 16:02 57.74966 4.97013 37123 ft 466 kts
2026-05-07 16:03 57.81383 4.98384 37122 ft 466 kts
2026-05-07 16:03 57.87799 4.99762 37127 ft 466 kts
2026-05-07 16:04 57.94237 5.01148 37108 ft 466 kts
2026-05-07 16:04 58.00676 5.02540 37126 ft 466 kts
2026-05-07 16:05 58.07112 5.03936 37126 ft 466 kts
2026-05-07 16:05 58.13549 5.05337 37132 ft 466 kts
2026-05-07 16:06 58.19994 5.06745 37128 ft 466 kts
2026-05-07 16:06 58.26398 5.08149 37124 ft 467 kts
2026-05-07 16:07 58.32849 5.09570 37125 ft 467 kts
2026-05-07 16:07 58.39302 5.10995 37138 ft 467 kts
2026-05-07 16:08 58.45754 5.12426 37124 ft 467 kts
2026-05-07 16:08 58.52215 5.13864 37116 ft 467 kts
2026-05-07 16:09 58.58671 5.15306 37123 ft 467 kts
2026-05-07 16:09 58.65131 5.16754 37120 ft 467 kts
2026-05-07 16:10 58.71588 5.18208 37123 ft 467 kts
2026-05-07 16:10 58.78039 5.19665 37123 ft 467 kts
2026-05-07 16:11 58.84498 5.21129 37123 ft 467 kts
2026-05-07 16:11 58.90958 5.22599 37122 ft 467 kts
2026-05-07 16:12 58.97417 5.24075 37124 ft 468 kts
2026-05-07 16:12 59.03882 5.25557 37120 ft 468 kts
2026-05-07 16:13 59.10351 5.27047 37111 ft 468 kts
2026-05-07 16:13 59.16816 5.28541 37110 ft 468 kts
2026-05-07 16:14 59.23284 5.30041 37121 ft 468 kts
2026-05-07 16:14 59.29763 5.31549 37106 ft 469 kts
2026-05-07 16:15 59.36197 5.33053 37105 ft 468 kts
2026-05-07 16:15 59.42671 5.34572 37102 ft 469 kts
2026-05-07 16:16 59.49144 5.36098 37121 ft 468 kts
2026-05-07 16:16 59.55627 5.37630 37114 ft 469 kts
2026-05-07 16:17 59.62098 5.39166 37107 ft 469 kts
2026-05-07 16:17 59.68570 5.40708 37100 ft 468 kts
2026-05-07 16:18 59.75035 5.42255 37100 ft 468 kts
2026-05-07 16:18 59.81496 5.43807 37106 ft 468 kts
2026-05-07 16:19 59.87945 5.45362 37110 ft 467 kts
2026-05-07 16:19 59.94398 5.46923 37101 ft 466 kts
2026-05-07 16:20 60.00842 5.48489 37103 ft 467 kts
2026-05-07 16:20 60.07295 5.50062 37123 ft 468 kts
2026-05-07 16:21 60.13763 5.51646 37102 ft 468 kts
2026-05-07 16:21 60.20227 5.53236 37095 ft 468 kts
2026-05-07 16:22 60.26640 5.54820 37101 ft 468 kts
2026-05-07 16:22 60.33100 5.56420 37108 ft 467 kts
2026-05-07 16:23 60.39563 5.58038 37113 ft 468 kts
2026-05-07 16:23 60.46038 5.59645 37103 ft 469 kts
2026-05-07 16:24 60.52511 5.61259 37089 ft 468 kts
2026-05-07 16:24 60.58982 5.62893 37085 ft 469 kts
2026-05-07 16:25 60.65468 5.64538 37109 ft 470 kts
2026-05-07 16:25 60.71967 5.66187 37084 ft 471 kts
2026-05-07 16:26 60.78450 5.67817 37071 ft 466 kts 358°
2026-05-07 16:26 60.84895 5.69252 37081 ft 466 kts
2026-05-07 16:27 60.91229 5.71035 37098 ft 462 kts
2026-05-07 16:27 60.97610 5.72764 37098 ft 462 kts
2026-05-07 16:28 61.03977 5.74428 37106 ft 460 kts
2026-05-07 16:28 61.10332 5.76072 37101 ft 460 kts
2026-05-07 16:28 61.13521 5.76897 36740 ft 464 kts 360°
2026-05-07 16:29 61.16713 5.77731 36258 ft 460 kts 359°
2026-05-07 16:29 61.19876 5.78565 35653 ft 457 kts 359°
2026-05-07 16:29 61.23027 5.79396 35104 ft 455 kts 358°
2026-05-07 16:29 61.26170 5.80224 34451 ft 455 kts 358°
2026-05-07 16:30 61.29299 5.81050 33782 ft 453 kts 358°
2026-05-07 16:30 61.32421 5.81875 33063 ft 451 kts 358°
2026-05-07 16:30 61.35526 5.82695 32384 ft 449 kts 358°
2026-05-07 16:30 61.38613 5.83515 31732 ft 446 kts 358°
2026-05-07 16:31 61.41686 5.84331 31052 ft 444 kts 358°
2026-05-07 16:31 61.44736 5.85144 30556 ft 438 kts 358°
2026-05-07 16:31 61.47740 5.85949 30065 ft 433 kts 358°
2026-05-07 16:31 61.50710 5.86746 29530 ft 427 kts 358°
2026-05-07 16:32 61.53627 5.87533 29055 ft 420 kts 358°
2026-05-07 16:32 61.56499 5.88298 28634 ft 413 kts 358°
2026-05-07 16:32 61.59327 5.89056 28155 ft 407 kts 358°
2026-05-07 16:32 61.62123 5.89804 27741 ft 406 kts 358°
2026-05-07 16:33 61.64966 5.90552 27268 ft 420 kts 358°
2026-05-07 16:33 61.67903 5.91332 26735 ft 426 kts 359°
2026-05-07 16:33 61.70771 5.92077 26417 ft 421 kts
2026-05-07 16:33 61.73380 5.95312 24789 ft 473 kts 43°
2026-05-07 16:34 61.75671 6.00021 24650 ft 449 kts 32°
2026-05-07 16:34 61.78135 6.03854 24394 ft 433 kts 30°
2026-05-07 16:34 61.80520 6.07646 24158 ft 424 kts 33°
2026-05-07 16:34 61.82796 6.11619 23933 ft 427 kts 34°
2026-05-07 16:35 61.84312 6.14387 23662 ft 425 kts 36°
2026-05-07 16:35 61.86514 6.18506 23137 ft 419 kts 36°
2026-05-07 16:35 61.88664 6.22576 22703 ft 411 kts 36°
2026-05-07 16:35 61.90784 6.26594 22244 ft 407 kts 36°
2026-05-07 16:36 61.92894 6.30580 21761 ft 404 kts 37°
2026-05-07 16:36 61.94960 6.34475 21326 ft 404 kts 37°
2026-05-07 16:36 61.97090 6.38476 20838 ft 413 kts 37°
2026-05-07 16:36 61.99248 6.42553 20441 ft 416 kts 37°
2026-05-07 16:37 62.01399 6.46621 19966 ft 411 kts 37°
2026-05-07 16:37 62.03517 6.50646 19495 ft 405 kts 38°
2026-05-07 16:37 62.05606 6.54628 19051 ft 399 kts 38°
2026-05-07 16:37 62.07778 6.58205 18592 ft 390 kts 25°
2026-05-07 16:38 62.10205 6.60661 18131 ft 383 kts 19°
2026-05-07 16:38 62.12678 6.62666 17656 ft 379 kts 14°
2026-05-07 16:38 62.15186 6.64412 17156 ft 379 kts 13°
2026-05-07 16:38 62.17704 6.66102 16658 ft 379 kts 13°
2026-05-07 16:39 62.20213 6.67758 16188 ft 376 kts 13°
2026-05-07 16:39 62.22705 6.69382 15709 ft 373 kts 13°
2026-05-07 16:39 62.25178 6.70972 15233 ft 370 kts 14°
2026-05-07 16:39 62.27647 6.72538 14776 ft 368 kts 13°
2026-05-07 16:40 62.30098 6.74058 14336 ft 366 kts 13°
2026-05-07 16:40 62.32543 6.75557 13887 ft 364 kts 13°
2026-05-07 16:40 62.34972 6.77029 13381 ft 362 kts 13°
2026-05-07 16:40 62.37387 6.78487 12906 ft 359 kts 13°
2026-05-07 16:41 62.39787 6.79940 12445 ft 358 kts 13°
2026-05-07 16:41 62.42181 6.81385 11950 ft 355 kts 13°
2026-05-07 16:41 62.44543 6.82803 11458 ft 350 kts 13°
2026-05-07 16:41 62.46870 6.84199 11003 ft 345 kts 13°
2026-05-07 16:42 62.49167 6.85575 10547 ft 340 kts 13°
2026-05-07 16:42 62.51437 6.86927 10093 ft 337 kts 13°
2026-05-07 16:42 62.53685 6.88260 9603 ft 334 kts 13°
2026-05-07 16:42 62.55918 6.89569 9112 ft 331 kts 13°
2026-05-07 16:43 62.58136 6.90849 8627 ft 329 kts 13°
2026-05-07 16:43 62.60341 6.92092 8158 ft 326 kts 13°
2026-05-07 16:43 62.62523 6.93421 7678 ft 325 kts 21°
2026-05-07 16:43 62.64409 6.96071 7208 ft 324 kts 46°
2026-05-07 16:44 62.65662 7.00067 6763 ft 319 kts 66°
2026-05-07 16:44 62.66504 7.04519 6309 ft 317 kts 72°
2026-05-07 16:44 62.67236 7.09036 5835 ft 316 kts 73°
2026-05-07 16:44 62.67912 7.13582 5352 ft 315 kts 78°
2026-05-07 16:45 62.68322 7.18205 5053 ft 305 kts 82°
2026-05-07 16:45 62.68652 7.22636 4998 ft 289 kts 83°
2026-05-07 16:45 62.68962 7.26854 4985 ft 274 kts 83°
2026-05-07 16:45 62.69254 7.30838 4982 ft 260 kts 83°
2026-05-07 16:46 62.69536 7.34692 5004 ft 256 kts 83°
2026-05-07 16:46 62.69818 7.38529 5007 ft 257 kts 83°
2026-05-07 16:46 62.70096 7.42382 5008 ft 258 kts 83°
2026-05-07 16:46 62.70363 7.46241 4989 ft 257 kts 83°
2026-05-07 16:47 62.70623 7.50078 4986 ft 256 kts 83°
2026-05-07 16:47 62.70881 7.53904 4987 ft 254 kts 83°
2026-05-07 16:47 62.71170 7.57653 4994 ft 254 kts 82°
2026-05-07 16:47 62.71479 7.61447 4995 ft 255 kts 82°
2026-05-07 16:48 62.71787 7.65244 4988 ft 254 kts 82°
2026-05-07 16:48 62.72090 7.69030 4976 ft 254 kts 82°
2026-05-07 16:48 62.72388 7.72825 4973 ft 252 kts 82°
2026-05-07 16:48 62.72681 7.76593 4973 ft 252 kts 82°
2026-05-07 16:49 62.72973 7.80355 4975 ft 251 kts 82°
2026-05-07 16:49 62.73595 7.83853 4959 ft 248 kts 52°
2026-05-07 16:49 62.74970 7.85942 4979 ft 241 kts 17°
2026-05-07 16:49 62.76604 7.86055 4997 ft 235 kts 345°
2026-05-07 16:50 62.78016 7.84511 4991 ft 220 kts 318°
2026-05-07 16:50 62.79114 7.82350 4983 ft 204 kts 315°
2026-05-07 16:50 62.79996 7.80124 4978 ft 186 kts 295°
2026-05-07 16:50 62.80314 7.77382 4820 ft 191 kts 267°
2026-05-07 16:51 62.80063 7.74542 4634 ft 191 kts 253°
2026-05-07 16:51 62.79733 7.71738 4398 ft 189 kts 253°
2026-05-07 16:51 62.79411 7.68973 4172 ft 185 kts 253°
2026-05-07 16:51 62.79092 7.66261 3970 ft 184 kts 255°
2026-05-07 16:52 62.78793 7.63534 3741 ft 186 kts 256°
2026-05-07 16:52 62.78496 7.60759 3465 ft 187 kts 256°
2026-05-07 16:52 62.78204 7.58040 3201 ft 179 kts 256°
2026-05-07 16:52 62.77926 7.55464 2895 ft 169 kts 257°
2026-05-07 16:53 62.77658 7.53030 2603 ft 161 kts 257°
2026-05-07 16:53 62.77399 7.50738 2355 ft 152 kts 257°
2026-05-07 16:53 62.77139 7.48494 2145 ft 152 kts 257°
2026-05-07 16:53 62.76871 7.46257 2049 ft 152 kts 257°
2026-05-07 16:54 62.76593 7.44028 2004 ft 152 kts 256°
2026-05-07 16:54 62.76327 7.41804 1938 ft 153 kts 257°
2026-05-07 16:54 62.76063 7.39528 1633 ft 156 kts 257°
2026-05-07 16:54 62.75839 7.37240 1258 ft 152 kts 261°
2026-05-07 16:55 62.75646 7.35012 831 ft 152 kts 261°
2026-05-07 16:55 62.75456 7.32814 527 ft 144 kts 259°
2026-05-07 16:55 62.75177 7.30743 303 ft 143 kts 252°
2026-05-07 16:55 62.74855 7.28665 75 ft 145 kts 253°
2026-05-07 16:56 62.74553 7.26733 17 ft 121 kts 250°
2026-05-07 16:56 62.74347 7.25432 16 ft 60 kts 250°
2026-05-07 16:56 62.74274 7.24974 18 ft 7 kts 251°
2026-05-07 16:57 62.74255 7.24848 20 ft 9 kts 251°
2026-05-07 16:57 62.74229 7.24734 17 ft 7 kts 236°
2026-05-07 16:57 62.74246 7.24660 17 ft 7 kts 343°
2026-05-07 16:57 62.74268 7.24717 18 ft 7 kts 94°
2026-05-07 16:58 62.74265 7.24816 20 ft 7 kts 94°
2026-05-07 16:58 62.74273 7.24969 18 ft 17 kts 72°
2026-05-07 16:58 62.74325 7.25294 18 ft 27 kts 71°
2026-05-07 16:58 62.74388 7.25683 14 ft 26 kts 70°
2026-05-07 16:59 62.74433 7.25841 17 ft 10 kts 15°
2026-05-07 16:59 62.74488 7.25820 16 ft 6 kts 347°
2026-05-07 16:59 62.74517 7.25859 18 ft 6 kts 71°
2026-05-07 16:59 62.74530 7.25944 16 ft 6 kts 72°
2026-05-07 17:00 62.74564 7.25974 18 ft 6 kts 346°
2026-05-07 17:00 62.74569 7.25970 17 ft 1 kts 340°
2026-05-07 17:00 62.74577 7.25964 16 ft 0 kts 340°